Time,TemperatureF,DewpointF,PressureIn,WindDirection,WindDirectionDegrees,WindSpeedMPH,WindSpeedGustMPH,Humidity,HourlyPrecipIn,Conditions,Clouds,dailyrainin,SoftwareType,DateUTC
2013-09-16 00:00:00,65.3,63.8,30.11,West,268,0.0,0.0,95,0.00,CLR,,0.00,WeatherDisplay:10.37,2013-09-16 04:00:00,
2013-09-16 00:10:00,65.2,63.7,30.11,West,268,0.0,0.0,95,0.00,CLR,,0.00,WeatherDisplay:10.37,2013-09-16 04:10:00,
2013-09-16 00:20:00,65.0,63.8,30.11,West,268,0.0,0.0,96,0.00,CLR,,0.00,WeatherDisplay:10.37,2013-09-16 04:20:00,
2013-09-16 00:30:00,64.9,63.7,30.11,West,268,0.0,0.0,96,0.00,CLR,,0.00,WeatherDisplay:10.37,2013-09-16 04:30:00,
2013-09-16 00:40:00,64.8,63.7,30.11,West,268,0.0,1.0,96,0.00,CLR,,0.00,WeatherDisplay:10.37,2013-09-16 04:40:00,
2013-09-16 00:50:00,64.8,63.6,30.11,West,268,0.0,0.0,96,0.00,CLR,,0.00,WeatherDisplay:10.37,2013-09-16 04:50:00,
2013-09-16 01:00:00,64.8,63.6,30.11,West,268,0.0,0.0,96,0.00,CLR,,0.00,WeatherDisplay:10.37,2013-09-16 05:00:00,
2013-09-16 01:10:00,64.7,63.5,30.11,West,268,0.0,0.0,96,0.00,CLR,,0.00,WeatherDisplay:10.37,2013-09-16 05:10:00,
2013-09-16 01:20:00,64.5,63.3,30.11,West,268,0.0,0.0,96,0.00,CLR,,0.00,WeatherDisplay:10.37,2013-09-16 05:20:00,
2013-09-16 01:30:00,64.6,63.7,30.11,West,268,0.0,0.0,97,0.00,CLR,,0.00,WeatherDisplay:10.37,2013-09-16 05:30:00,
2013-09-16 01:40:00,64.4,63.2,30.11,West,268,0.0,0.0,96,0.00,BKN,,0.00,WeatherDisplay:10.37,2013-09-16 05:40:00,
2013-09-16 01:50:00,64.2,63.1,30.11,West,268,0.0,0.0,96,0.00,BKN,,0.00,WeatherDisplay:10.37,2013-09-16 05:50:00,
2013-09-16 02:00:00,64.1,62.9,30.11,West,268,0.0,0.0,96,0.00,BKN,,0.00,WeatherDisplay:10.37,2013-09-16 06:00:00,
2013-09-16 02:10:00,64.0,62.9,30.11,West,268,0.0,0.0,96,0.00,SCT,,0.00,WeatherDisplay:10.37,2013-09-16 06:10:00,
2013-09-16 02:20:00,64.0,63.1,30.11,West,268,0.0,0.0,97,0.00,SCT,,0.00,WeatherDisplay:10.37,2013-09-16 06:20:00,
2013-09-16 02:30:00,63.9,62.8,30.11,West,268,0.0,0.0,96,0.00,SCT,,0.00,WeatherDisplay:10.37,2013-09-16 06:30:00,
2013-09-16 02:40:00,63.8,63.0,30.11,West,268,0.0,0.0,97,0.00,CLR,,0.00,WeatherDisplay:10.37,2013-09-16 06:40:00,
2013-09-16 02:50:00,63.8,62.9,30.11,West,268,0.0,0.0,97,0.00,CLR,,0.00,WeatherDisplay:10.37,2013-09-16 06:50:00,
2013-09-16 03:00:00,63.6,62.5,30.11,West,268,0.0,0.0,96,0.00,CLR,,0.00,WeatherDisplay:10.37,2013-09-16 07:00:00,
2013-09-16 03:10:00,63.6,62.7,30.11,West,268,0.0,0.0,97,0.00,CLR,,0.00,WeatherDisplay:10.37,2013-09-16 07:10:00,
2013-09-16 03:20:00,63.5,62.6,30.11,West,268,0.0,0.0,97,0.00,CLR,,0.00,WeatherDisplay:10.37,2013-09-16 07:20:00,
2013-09-16 03:30:00,63.3,62.4,30.11,West,268,0.0,0.0,97,0.00,CLR,,0.00,WeatherDisplay:10.37,2013-09-16 07:30:00,
2013-09-16 03:40:00,63.2,62.4,30.11,West,268,0.0,0.0,97,0.00,CLR,,0.00,WeatherDisplay:10.37,2013-09-16 07:40:00,
2013-09-16 03:50:00,63.2,62.3,30.11,West,268,0.0,0.0,97,0.00,CLR,,0.00,WeatherDisplay:10.37,2013-09-16 07:50:00,
2013-09-16 04:00:00,63.1,62.2,30.11,West,268,0.0,1.0,97,0.00,CLR,,0.00,WeatherDisplay:10.37,2013-09-16 08:00:00,
2013-09-16 04:10:00,62.9,62.1,30.11,West,268,0.0,0.0,97,0.00,CLR,,0.00,WeatherDisplay:10.37,2013-09-16 08:10:00,
2013-09-16 04:20:00,62.8,61.9,30.11,West,268,0.0,0.0,97,0.00,CLR,,0.00,WeatherDisplay:10.37,2013-09-16 08:20:00,
2013-09-16 04:30:00,62.6,61.8,30.11,West,268,0.0,0.0,97,0.00,CLR,,0.00,WeatherDisplay:10.37,2013-09-16 08:30:00,
2013-09-16 04:40:00,62.5,61.6,30.11,West,268,0.0,0.0,97,0.00,CLR,,0.00,WeatherDisplay:10.37,2013-09-16 08:40:00,
2013-09-16 04:50:00,62.3,61.4,30.11,West,268,0.0,0.0,97,0.00,CLR,,0.00,WeatherDisplay:10.37,2013-09-16 08:50:00,
2013-09-16 05:00:00,62.1,61.2,30.11,West,268,0.0,0.0,97,0.00,CLR,,0.00,WeatherDisplay:10.37,2013-09-16 09:00:00,
2013-09-16 05:10:00,62.0,61.1,30.11,West,267,0.0,0.0,97,0.00,CLR,,0.00,WeatherDisplay:10.37,2013-09-16 09:10:00,
2013-09-16 05:20:00,61.9,61.0,30.11,West,268,0.0,0.0,97,0.00,CLR,,0.00,WeatherDisplay:10.37,2013-09-16 09:20:00,
2013-09-16 05:30:00,61.7,60.8,30.11,West,268,0.0,0.0,97,0.00,CLR,,0.00,WeatherDisplay:10.37,2013-09-16 09:30:00,
2013-09-16 05:39:00,61.5,60.6,30.11,West,268,0.0,0.0,97,0.00,CLR,,0.00,WeatherDisplay:10.37,2013-09-16 09:39:00,
2013-09-16 05:49:00,61.4,60.5,30.11,West,268,0.0,0.0,97,0.00,CLR,,0.00,WeatherDisplay:10.37,2013-09-16 09:49:00,
2013-09-16 06:00:00,61.2,60.4,30.11,West,268,0.0,0.0,97,0.00,CLR,,0.00,WeatherDisplay:10.37,2013-09-16 10:00:00,
2013-09-16 06:09:00,61.1,60.2,30.11,West,268,0.0,0.0,97,0.00,CLR,,0.00,WeatherDisplay:10.37,2013-09-16 10:09:00,
2013-09-16 06:19:00,61.0,60.2,30.11,West,268,0.0,0.0,97,0.00,CLR,,0.00,WeatherDisplay:10.37,2013-09-16 10:19:00,
2013-09-16 06:30:00,60.9,60.0,30.12,West,268,0.0,0.0,97,0.00,CLR,,0.00,WeatherDisplay:10.37,2013-09-16 10:30:00,
2013-09-16 06:40:00,60.8,59.9,30.12,West,268,0.0,0.0,97,0.00,CLR,,0.00,WeatherDisplay:10.37,2013-09-16 10:40:00,
2013-09-16 06:50:00,60.7,59.8,30.12,West,268,0.0,0.0,97,0.00,CLR,,0.00,WeatherDisplay:10.37,2013-09-16 10:50:00,
2013-09-16 07:01:00,60.6,59.7,30.12,West,268,0.0,0.0,97,0.00,CLR,,0.00,WeatherDisplay:10.37,2013-09-16 11:01:00,
2013-09-16 07:10:00,60.5,59.6,30.12,West,268,0.0,0.0,97,0.00,CLR,,0.00,WeatherDisplay:10.37,2013-09-16 11:10:00,
2013-09-16 07:20:00,60.5,59.6,30.13,West,268,0.0,0.0,97,0.00,CLR,,0.00,WeatherDisplay:10.37,2013-09-16 11:20:00,
2013-09-16 07:31:00,60.4,59.5,30.13,West,268,0.0,0.0,97,0.00,CLR,,0.00,WeatherDisplay:10.37,2013-09-16 11:31:00,
2013-09-16 07:40:00,60.4,59.6,30.13,West,268,0.0,0.0,97,0.00,CLR,,0.00,WeatherDisplay:10.37,2013-09-16 11:40:00,
2013-09-16 07:50:00,60.5,59.6,30.13,West,268,0.0,0.0,97,0.00,SCT,,0.00,WeatherDisplay:10.37,2013-09-16 11:50:00,
2013-09-16 08:01:00,60.6,59.7,30.13,West,268,0.0,0.0,97,0.00,SCT,,0.00,WeatherDisplay:10.37,2013-09-16 12:01:00,
2013-09-16 08:10:00,60.7,59.8,30.14,West,268,0.0,0.0,97,0.00,OVC,,0.00,WeatherDisplay:10.37,2013-09-16 12:10:00,
2013-09-16 08:20:00,60.9,60.3,30.13,West,268,0.0,0.0,98,0.00,OVC,,0.00,WeatherDisplay:10.37,2013-09-16 12:20:00,
2013-09-16 08:31:00,61.5,60.9,30.14,West,268,0.0,0.0,98,0.00,OVC,,0.00,WeatherDisplay:10.37,2013-09-16 12:31:00,
2013-09-16 08:40:00,62.2,61.6,30.14,West,268,0.0,0.0,98,0.00,OVC,,0.00,WeatherDisplay:10.37,2013-09-16 12:40:00,
2013-09-16 08:50:00,63.2,62.6,30.15,West,268,0.0,1.0,98,0.00,OVC,,0.00,WeatherDisplay:10.37,2013-09-16 12:50:00,
2013-09-16 09:01:00,63.9,63.3,30.15,NW,310,0.0,1.0,98,0.00,OVC,,0.00,WeatherDisplay:10.37,2013-09-16 13:01:00,
2013-09-16 09:10:00,64.7,64.1,30.15,NW,307,0.0,1.0,98,0.00,OVC,,0.00,WeatherDisplay:10.37,2013-09-16 13:10:00,
2013-09-16 09:20:00,65.5,64.9,30.16,NW,308,0.0,1.0,98,0.00,OVC,,0.00,WeatherDisplay:10.37,2013-09-16 13:20:00,
2013-09-16 09:31:00,66.0,65.4,30.16,NW,309,0.0,1.0,98,0.00,OVC,,0.00,WeatherDisplay:10.37,2013-09-16 13:31:00,
2013-09-16 09:40:00,66.5,65.9,30.16,NW,309,0.0,2.0,98,0.00,BKN,,0.00,WeatherDisplay:10.37,2013-09-16 13:40:00,
2013-09-16 09:50:00,67.0,66.4,30.15,NW,309,0.0,2.0,98,0.00,SCT,,0.00,WeatherDisplay:10.37,2013-09-16 13:50:00,
2013-09-16 10:01:00,67.4,66.8,30.15,NW,309,0.0,2.0,98,0.00,SCT,,0.00,WeatherDisplay:10.37,2013-09-16 14:01:00,
2013-09-16 10:10:00,68.2,67.6,30.15,NNW,348,0.0,3.0,98,0.00,SCT,,0.00,WeatherDisplay:10.37,2013-09-16 14:10:00,
2013-09-16 10:20:00,69.4,68.8,30.15,NNE,15,0.0,1.0,98,0.00,SCT,,0.00,WeatherDisplay:10.37,2013-09-16 14:20:00,
2013-09-16 10:31:00,70.3,68.8,30.15,NNE,15,0.0,3.0,95,0.00,SCT,,0.00,WeatherDisplay:10.37,2013-09-16 14:31:00,
2013-09-16 10:40:00,71.5,69.0,30.15,NNE,15,1.0,2.0,92,0.00,CLR,,0.00,WeatherDisplay:10.37,2013-09-16 14:40:00,
2013-09-16 10:50:00,72.3,68.6,30.15,NNE,15,1.0,3.0,88,0.00,CLR,,0.00,WeatherDisplay:10.37,2013-09-16 14:50:00,
2013-09-16 11:01:00,73.5,69.1,30.15,NNE,22,0.0,4.0,86,0.00,CLR,,0.00,WeatherDisplay:10.37,2013-09-16 15:01:00,
2013-09-16 11:10:00,74.2,69.8,30.14,NNE,25,0.0,2.0,86,0.00,CLR,,0.00,WeatherDisplay:10.37,2013-09-16 15:10:00,
2013-09-16 11:20:00,75.9,70.7,30.14,NNE,25,0.0,1.0,84,0.00,CLR,,0.00,WeatherDisplay:10.37,2013-09-16 15:20:00,
2013-09-16 11:31:00,77.3,70.3,30.14,NE,40,1.0,4.0,79,0.00,CLR,,0.00,WeatherDisplay:10.37,2013-09-16 15:31:00,
2013-09-16 11:40:00,78.4,69.4,30.14,ENE,73,1.0,4.0,74,0.00,CLR,,0.00,WeatherDisplay:10.37,2013-09-16 15:40:00,
2013-09-16 11:50:00,79.0,68.8,30.14,SE,128,1.0,7.0,71,0.00,SCT,,0.00,WeatherDisplay:10.37,2013-09-16 15:50:00,
2013-09-16 12:01:00,78.9,67.4,30.14,ENE,62,0.0,6.0,68,0.00,SCT,,0.00,WeatherDisplay:10.37,2013-09-16 16:01:00,
2013-09-16 12:10:00,79.4,67.1,30.14,NE,43,0.0,4.0,66,0.00,CLR,,0.00,WeatherDisplay:10.37,2013-09-16 16:10:00,
2013-09-16 12:20:00,80.2,65.6,30.14,NE,41,1.0,3.0,61,0.00,CLR,,0.00,WeatherDisplay:10.37,2013-09-16 16:20:00,
2013-09-16 12:31:00,80.1,66.4,30.14,NE,41,1.0,3.0,63,0.00,CLR,,0.00,WeatherDisplay:10.37,2013-09-16 16:31:00,
2013-09-16 12:40:00,80.3,67.9,30.14,NE,52,0.0,3.0,66,0.00,CLR,,0.00,WeatherDisplay:10.37,2013-09-16 16:40:00,
2013-09-16 12:50:00,81.2,65.6,30.14,NE,54,1.0,5.0,59,0.00,CLR,,0.00,WeatherDisplay:10.37,2013-09-16 16:50:00,
2013-09-16 13:01:00,81.2,65.0,30.14,NE,55,1.0,5.0,58,0.00,CLR,,0.00,WeatherDisplay:10.37,2013-09-16 17:01:00,
2013-09-16 13:10:00,80.9,64.2,30.14,NNE,21,1.0,7.0,57,0.00,SCT,,0.00,WeatherDisplay:10.37,2013-09-16 17:10:00,
2013-09-16 13:20:00,80.7,64.5,30.13,NNE,32,3.0,10.0,58,0.00,SCT,,0.00,WeatherDisplay:10.37,2013-09-16 17:20:00,
2013-09-16 13:31:00,81.2,64.5,30.13,ENE,66,1.0,5.0,57,0.00,SCT,,0.00,WeatherDisplay:10.37,2013-09-16 17:31:00,
2013-09-16 13:40:00,81.4,63.2,30.13,NNE,29,1.0,4.0,54,0.00,SCT,,0.00,WeatherDisplay:10.37,2013-09-16 17:40:00,
2013-09-16 13:50:00,81.6,65.3,30.13,ENE,58,1.0,5.0,58,0.00,SCT,,0.00,WeatherDisplay:10.37,2013-09-16 17:50:00,
2013-09-16 14:01:00,81.9,64.7,30.12,East,88,1.0,4.0,56,0.00,SCT,,0.00,WeatherDisplay:10.37,2013-09-16 18:01:00,
2013-09-16 14:10:00,82.3,64.5,30.12,NE,46,0.0,6.0,55,0.00,SCT,,0.00,WeatherDisplay:10.37,2013-09-16 18:10:00,
2013-09-16 14:20:00,82.1,63.8,30.12,NE,47,0.0,5.0,54,0.00,SCT,,0.00,WeatherDisplay:10.37,2013-09-16 18:20:00,
2013-09-16 14:31:00,82.3,61.8,30.11,NE,38,0.0,4.0,50,0.00,SCT,,0.00,WeatherDisplay:10.37,2013-09-16 18:31:00,
2013-09-16 14:40:00,82.2,62.8,30.11,NNE,27,1.0,3.0,52,0.00,CLR,,0.00,WeatherDisplay:10.37,2013-09-16 18:40:00,
2013-09-16 14:50:00,82.5,61.4,30.10,ENE,72,2.0,5.0,49,0.00,CLR,,0.00,WeatherDisplay:10.37,2013-09-16 18:50:00,
2013-09-16 15:01:00,82.1,62.2,30.10,East,98,0.0,7.0,51,0.00,CLR,,0.00,WeatherDisplay:10.37,2013-09-16 19:01:00,
2013-09-16 15:10:00,82.4,60.7,30.10,NE,47,0.0,5.0,48,0.00,CLR,,0.00,WeatherDisplay:10.37,2013-09-16 19:10:00,
2013-09-16 15:20:00,83.0,61.3,30.10,NE,51,1.0,4.0,48,0.00,CLR,,0.00,WeatherDisplay:10.37,2013-09-16 19:20:00,
2013-09-16 15:31:00,83.4,62.8,30.09,ENE,57,0.0,3.0,50,0.00,CLR,,0.00,WeatherDisplay:10.37,2013-09-16 19:31:00,
2013-09-16 15:40:00,83.5,60.5,30.09,NE,38,1.0,5.0,46,0.00,CLR,,0.00,WeatherDisplay:10.37,2013-09-16 19:40:00,
2013-09-16 15:50:00,83.5,61.8,30.08,NNE,19,1.0,4.0,48,0.00,CLR,,0.00,WeatherDisplay:10.37,2013-09-16 19:50:00,
2013-09-16 16:01:00,83.5,62.4,30.08,NE,55,0.0,5.0,49,0.00,CLR,,0.00,WeatherDisplay:10.37,2013-09-16 20:01:00,
2013-09-16 16:10:00,83.9,62.7,30.08,NE,47,2.0,4.0,49,0.00,CLR,,0.00,WeatherDisplay:10.37,2013-09-16 20:10:00,
2013-09-16 16:20:00,83.9,61.5,30.08,NE,42,1.0,8.0,47,0.00,CLR,,0.00,WeatherDisplay:10.37,2013-09-16 20:20:00,
2013-09-16 16:31:00,83.8,63.2,30.08,ENE,67,0.0,2.0,50,0.00,CLR,,0.00,WeatherDisplay:10.37,2013-09-16 20:31:00,
2013-09-16 16:40:00,83.7,61.9,30.08,NNW,344,1.0,5.0,48,0.00,CLR,,0.00,WeatherDisplay:10.37,2013-09-16 20:40:00,
2013-09-16 16:50:00,83.5,61.1,30.08,NNE,31,0.0,3.0,47,0.00,CLR,,0.00,WeatherDisplay:10.37,2013-09-16 20:50:00,
2013-09-16 17:01:00,83.3,59.1,30.08,NNE,32,0.0,2.0,44,0.00,CLR,,0.00,WeatherDisplay:10.37,2013-09-16 21:01:00,
2013-09-16 17:10:00,83.3,61.6,30.08,NE,35,0.0,1.0,48,0.00,CLR,,0.00,WeatherDisplay:10.37,2013-09-16 21:10:00,
2013-09-16 17:20:00,82.6,62.1,30.08,NE,35,0.0,2.0,50,0.00,CLR,,0.00,WeatherDisplay:10.37,2013-09-16 21:20:00,
2013-09-16 17:31:00,81.8,62.5,30.08,NE,35,1.0,3.0,52,0.00,CLR,,0.00,WeatherDisplay:10.37,2013-09-16 21:31:00,
2013-09-16 17:40:00,81.2,62.9,30.08,NE,35,0.0,4.0,54,0.00,CLR,,0.00,WeatherDisplay:10.37,2013-09-16 21:40:00,
2013-09-16 17:50:00,80.7,64.1,30.08,NE,35,0.0,3.0,57,0.00,CLR,,0.00,WeatherDisplay:10.37,2013-09-16 21:50:00,
2013-09-16 18:01:00,80.2,63.1,30.08,NE,34,0.0,1.0,56,0.00,CLR,,0.00,WeatherDisplay:10.37,2013-09-16 22:01:00,
2013-09-16 18:10:00,79.8,63.7,30.08,NE,34,0.0,0.0,58,0.00,CLR,,0.00,WeatherDisplay:10.37,2013-09-16 22:10:00,
2013-09-16 18:20:00,79.0,63.9,30.08,NE,34,0.0,1.0,60,0.00,CLR,,0.00,WeatherDisplay:10.37,2013-09-16 22:20:00,
2013-09-16 18:31:00,78.3,63.8,30.08,NE,34,0.0,1.0,61,0.00,CLR,,0.00,WeatherDisplay:10.37,2013-09-16 22:31:00,
2013-09-16 18:40:00,77.6,64.5,30.08,NE,34,0.0,1.0,64,0.00,CLR,,0.00,WeatherDisplay:10.37,2013-09-16 22:40:00,
2013-09-16 18:50:00,76.9,64.7,30.07,NE,34,0.0,0.0,66,0.00,CLR,,0.00,WeatherDisplay:10.37,2013-09-16 22:50:00,
2013-09-16 19:01:00,76.0,64.7,30.07,NE,34,0.0,0.0,68,0.00,CLR,,0.00,WeatherDisplay:10.37,2013-09-16 23:01:00,
2013-09-16 19:10:00,75.2,64.7,30.07,NE,34,0.0,0.0,70,0.00,CLR,,0.00,WeatherDisplay:10.37,2013-09-16 23:10:00,
2013-09-16 19:20:00,74.4,64.3,30.07,NE,34,0.0,0.0,71,0.00,CLR,,0.00,WeatherDisplay:10.37,2013-09-16 23:20:00,
2013-09-16 19:31:00,73.6,64.0,30.07,NE,34,0.0,0.0,72,0.00,CLR,,0.00,WeatherDisplay:10.37,2013-09-16 23:31:00,
2013-09-16 19:40:00,72.9,64.1,30.07,NE,34,0.0,0.0,74,0.00,CLR,,0.00,WeatherDisplay:10.37,2013-09-16 23:40:00,
2013-09-16 19:50:00,72.2,64.2,30.08,NE,34,0.0,0.0,76,0.00,CLR,,0.00,WeatherDisplay:10.37,2013-09-16 23:50:00,
2013-09-16 20:01:00,71.5,64.0,30.08,NE,34,0.0,0.0,77,0.00,CLR,,0.00,WeatherDisplay:10.37,2013-09-17 00:01:00,
2013-09-16 20:10:00,70.9,63.7,30.08,NE,34,0.0,0.0,78,0.00,CLR,,0.00,WeatherDisplay:10.37,2013-09-17 00:10:00,
2013-09-16 20:20:00,70.4,63.9,30.08,NE,34,0.0,0.0,80,0.00,CLR,,0.00,WeatherDisplay:10.37,2013-09-17 00:20:00,
2013-09-16 20:31:00,70.0,63.5,30.08,NE,34,0.0,0.0,80,0.00,CLR,,0.00,WeatherDisplay:10.37,2013-09-17 00:31:00,
2013-09-16 20:40:00,69.5,63.4,30.08,NE,34,0.0,0.0,81,0.00,CLR,,0.00,WeatherDisplay:10.37,2013-09-17 00:40:00,
2013-09-16 20:50:00,69.1,63.7,30.08,NE,34,0.0,0.0,83,0.00,CLR,,0.00,WeatherDisplay:10.37,2013-09-17 00:50:00,
2013-09-16 21:01:00,68.8,63.8,30.08,NE,34,0.0,0.0,84,0.00,CLR,,0.00,WeatherDisplay:10.37,2013-09-17 01:01:00,
2013-09-16 21:10:00,68.5,63.8,30.09,NE,34,0.0,0.0,85,0.00,CLR,,0.00,WeatherDisplay:10.37,2013-09-17 01:10:00,
2013-09-16 21:20:00,68.3,63.9,30.09,NE,34,0.0,0.0,86,0.00,CLR,,0.00,WeatherDisplay:10.37,2013-09-17 01:20:00,
2013-09-16 21:31:00,68.0,63.7,30.10,NE,34,0.0,0.0,86,0.00,CLR,,0.00,WeatherDisplay:10.37,2013-09-17 01:31:00,
2013-09-16 21:40:00,67.8,63.8,30.10,NE,34,0.0,0.0,87,0.00,CLR,,0.00,WeatherDisplay:10.37,2013-09-17 01:40:00,
2013-09-16 21:50:00,67.6,63.9,30.10,NE,34,0.0,1.0,88,0.00,CLR,,0.00,WeatherDisplay:10.37,2013-09-17 01:50:00,
2013-09-16 22:01:00,67.4,64.0,30.11,NE,34,0.0,0.0,89,0.00,CLR,,0.00,WeatherDisplay:10.37,2013-09-17 02:01:00,
2013-09-16 22:10:00,67.2,63.8,30.11,NE,34,0.0,0.0,89,0.00,CLR,,0.00,WeatherDisplay:10.37,2013-09-17 02:10:00,
2013-09-16 22:20:00,67.1,63.7,30.11,NE,34,0.0,0.0,89,0.00,CLR,,0.00,WeatherDisplay:10.37,2013-09-17 02:20:00,
2013-09-16 22:31:00,67.1,63.7,30.11,NE,34,0.0,2.0,89,0.00,CLR,,0.00,WeatherDisplay:10.37,2013-09-17 02:31:00,
2013-09-16 22:40:00,67.3,63.6,30.12,NE,36,0.0,2.0,88,0.00,CLR,,0.00,WeatherDisplay:10.37,2013-09-17 02:40:00,
2013-09-16 22:50:00,67.4,63.7,30.12,NE,37,0.0,2.0,88,0.00,CLR,,0.00,WeatherDisplay:10.37,2013-09-17 02:50:00,
2013-09-16 23:01:00,67.4,63.7,30.12,NE,37,0.0,2.0,88,0.00,CLR,,0.00,WeatherDisplay:10.37,2013-09-17 03:01:00,
2013-09-16 23:10:00,68.1,64.1,30.12,NE,40,1.0,4.0,87,0.00,CLR,,0.00,WeatherDisplay:10.37,2013-09-17 03:10:00,
2013-09-16 23:20:00,68.1,64.1,30.12,NE,42,0.0,3.0,87,0.00,CLR,,0.00,WeatherDisplay:10.37,2013-09-17 03:20:00,
2013-09-16 23:31:00,68.0,64.0,30.12,NE,36,0.0,3.0,87,0.00,CLR,,0.00,WeatherDisplay:10.37,2013-09-17 03:31:00,
2013-09-16 23:40:00,68.2,63.9,30.12,NE,40,0.0,4.0,86,0.00,CLR,,0.00,WeatherDisplay:10.37,2013-09-17 03:40:00,
2013-09-16 23:50:00,68.5,64.1,30.12,NE,45,0.0,3.0,86,0.00,CLR,,0.00,WeatherDisplay:10.37,2013-09-17 03:50:00,